User: anonymous   Login
Location: Unspecified
(0.0000°N, 0.0000°E)
Time: 10:25:37
(UTC+00:00)
Language:

OBJECT H - Orbit

View from above orbital plane
View from above orbital plane
View from above satellite
View from above satellite

Ground track
Ground track

The orbit data is extracted from the following two-line orbital elements,

1 43669U 18083H   19111.92552689 +.00000887 +00000-0 +48667-4 0  9995
2 43669 097.5113 136.2684 0011727 029.5667 330.6227 15.16699722026479
Epoch (UTC): 21 April 2019 22:12:45
Eccentricity: 0.0011727
inclination: 97.5113°
perigee height: 508 km
apogee height: 524 km
right ascension of ascending node: 136.2684°
argument of perigee: 29.5667°
revolutions per day: 15.16699722
mean anomaly at epoch: 330.6227°
orbit number at epoch: 2647

The dashed part of the orbit path shows where the satellite is in the earth's shadow,  

DLR